Flag for Poland Weather past 2 weeks in Kraków, Poland

Now
61 °F

Passing clouds.


Feels Like: 61 °F
Forecast: 44 / 73 °F
Wind: 9 mph from East

Location: Krakow Airport

Current Time: Sep 17, 2014 at 12:24:45 PM

Latest Report: Sep 17, 2014 at 12:00 PM


Visibility: N/A

Pressure: 30.15 "Hg

Humidity: 72%

Dew point: 52 °F

Location of KrakówLocation

Historic Weather in Kraków — Graph

°F

Kraków temperature yesterday

Maximum temperature yesterday: 70 °F (at 3:00 PM)
Minimum temperature yesterday: 52 °F (at 6:00 AM)
Average temperature yesterday: 61 °F

Past Weeks' High & Low Weather Summary

 TemperatureHumidityPressure
High81 °F (Sep 8, 4:00 PM)100% (Sep 5, 6:30 AM)30.21 "Hg (Sep 5, 6:30 AM)
Low48 °F (Sep 17, 6:00 AM)45% (Sep 7, 3:30 PM)29.92 "Hg (Sep 6, 4:00 PM)
Average63 °F82%30.04 "Hg
* Reported Sep 2 11:00 AM — Sep 17 11:30 AM, Kraków, Weather by CustomWeather, © 2014

Note: Actual official high and low records may vary slightly from our data, if they occured in-between our weather recording intervals... More about our weather records

Advertising

Kraków weather history for previous 24 hours

 ConditionsComfort  
Time TempWeatherWind HumidityBarometerVisibility
11:30 AM
Sep 17
61 °FPassing clouds.10 mph72%30.15 "HgN/A
11:00 AM59 °FPassing clouds.9 mph77%30.15 "HgN/A
10:30 AM57 °FSunny.8 mph77%30.15 "Hg10 mi
10:00 AM55 °FSunny.8 mph82%30.15 "Hg10 mi
9:30 AM55 °FPassing clouds.8 mph82%30.15 "HgN/A
9:00 AM54 °FPassing clouds.8 mph88%30.15 "HgN/A
8:30 AM52 °FPassing clouds.8 mph94%30.15 "HgN/A
8:00 AM52 °FSunny.7 mph88%30.15 "Hg10 mi
7:30 AM50 °FSunny.6 mph94%30.15 "Hg10 mi
7:00 AM48 °FClear.7 mph94%30.15 "Hg10 mi
6:30 AM48 °FClear.7 mph94%30.15 "Hg10 mi
6:00 AM48 °FClear.6 mph94%30.15 "Hg10 mi
5:30 AM50 °FClear.7 mph94%30.15 "Hg10 mi
5:00 AM50 °FClear.7 mph88%30.15 "Hg10 mi
4:30 AM50 °FClear.8 mph88%30.15 "Hg10 mi
4:00 AM50 °FClear.7 mph94%30.15 "Hg10 mi
3:30 AM50 °FClear.7 mph94%30.15 "Hg10 mi
3:00 AM52 °FClear.7 mph88%30.15 "Hg10 mi
2:30 AM52 °FClear.8 mph88%30.15 "Hg10 mi
2:00 AM54 °FPassing clouds.6 mph88%30.15 "HgN/A
1:30 AM54 °FClear.8 mph88%30.15 "Hg10 mi
1:00 AM55 °FClear.8 mph82%30.15 "Hg10 mi
12:30 AM55 °FClear.9 mph88%30.15 "Hg10 mi
12:00 AM55 °FClear.8 mph88%30.15 "Hg10 mi
11:30 PM
Sep 16
57 °FClear.9 mph82%30.15 "Hg10 mi
11:00 PM57 °FClear.8 mph82%30.15 "Hg10 mi
10:30 PM59 °FClear.8 mph77%30.15 "Hg10 mi
10:00 PM59 °FClear.7 mph77%30.15 "Hg10 mi
9:30 PM59 °FClear.8 mph77%30.15 "Hg10 mi
9:00 PM61 °FClear.8 mph77%30.15 "Hg10 mi
8:30 PM61 °FPassing clouds.7 mph77%30.15 "HgN/A
8:00 PM61 °FPassing clouds.6 mph77%30.15 "HgN/A
7:30 PM64 °FScattered clouds.1 mph73%30.12 "HgN/A
7:00 PM64 °FPassing clouds.7 mph73%30.12 "HgN/A
6:30 PM64 °FPassing clouds.9 mph73%30.12 "HgN/A
6:00 PM66 °FPassing clouds.9 mph68%30.12 "HgN/A
5:30 PM70 °FSunny.10 mph60%30.12 "Hg10 mi
5:00 PM70 °FPassing clouds.12 mph60%30.12 "HgN/A
4:30 PM70 °FSunny.14 mph60%30.12 "Hg10 mi
4:00 PM70 °FPassing clouds.14 mph64%30.09 "HgN/A
3:30 PM70 °FPassing clouds.14 mph64%30.12 "HgN/A
3:00 PM70 °FPassing clouds.14 mph64%30.12 "HgN/A
2:30 PM68 °FPassing clouds.14 mph69%30.12 "HgN/A
1:30 PM68 °FPassing clouds.13 mph64%30.12 "HgN/A
1:00 PM66 °FPassing clouds.13 mph68%30.15 "HgN/A
12:30 PM66 °FPassing clouds.10 mph64%30.15 "HgN/A
12:00 PM64 °FSunny.12 mph73%30.15 "Hg10 mi
Weather by CustomWeather, © 2014

See weather overviewHow to use our weather pages